Вернуться в каталог

SL-14 DEB

АктивенPO
NORAD 19232·DEBRIS·🇷🇺 Russia

Запущен Oct 26, 1978 с Plesetsk Cosmodrome

Loading…

Ближайшие Пролёты (ближайшие 24 часа)

TLE

СвежийSource: Space-Track

Эпоха: Sep 13, 2026, 08:06 UTC

1 19232U 78100AB  26256.33814825  .00000000  00000-0 -14561-3 0  9999
2 19232  82.3320 218.4572 0189662 164.1620 351.4480 11.67585269633331

Отслеживайте SL-14 DEB в реальном времени с AllMySat

Download on the App Store